Preview of NWS' New Version of Forecast
This preview is not operational and should not be used for support decisions.

Regional Weather Roundup (RWR)

Issued by National Weather Service (NWS)

                            
000
ASUS42 KTBW 230217
RWRFL 
FLORIDA REGIONAL WEATHER ROUNDUP
NATIONAL WEATHER SERVICE TAMPA BAY RUSKIN FL
1000 PM EDT SUN SEP 22 2019

NOTE: "FAIR" INDICATES FEW OR NO CLOUDS BELOW 12,000 FEET WITH NO
SIGNIFICANT WEATHER AND/OR OBSTRUCTIONS TO VISIBILITY.

FLZ001>010-012>015-112-114-115-230300-
PANHANDLE FLORIDA
  
CITY           SKY/WX    TMP DP  RH WIND       PRES   REMARKS
PENSACOLA      FAIR      77  69  76 SE6       30.09R                  
PENSACOLA NAS  FAIR      79  68  69 S6        30.09R                  
MILTON NAS     FAIR      70  65  84 CALM      30.10R                  
CRESTVIEW      FAIR      72  63  73 CALM      30.12R                  
VALPARAISO     FAIR      80  69  70 S8        30.10                   
TRI COUNTY     FAIR      74  64  71 CALM      30.11                   
PANAMA CITY    FAIR      73  68  84 NW5       30.09R                  
APALACHICOLA   FAIR      72  66  81 CALM      30.08S                  

STATION/POSITION SKY/WX   TEMP    WIND        PRES    WAVE   SWELL
                          AIR SEA DIR/SP/G            HT/PER HT/PER
                          (F)     (DEG/KT/KT) (MB)    (FT/S) (FT/S)
30.1N   87.6W              81 84  130/  8/ 12 1019.1R   3/ 6   3/ 6
29.2N   88.2W              82     100/ 10/ 14 1018.7R   4/ 7   3/ 7
28.8N   86.0W                 83   90/ 12/ 16 1018.7R   3/ 6   2/ 6
PANAMA CITY BEAC           82 84  160/  9/ 10 1019.2
TOWER C                    81      30/  6/  7 1019.2R
28.5N   84.5W              82      30/ 10/ 12 1019.0R   2/ 6   2/ 6

$$
FLZ011-016>038-118-127-128-134-139-239-230300-
NORTH FLORIDA
  
CITY           SKY/WX    TMP DP  RH WIND       PRES   REMARKS
MARIANNA       FAIR      77  64  64 CALM      30.09R                  
TALLAHASSEE    FAIR      75  63  66 CALM      30.10R                  
PERRY          FAIR      79  67  67 E6        30.11R                  
LIVE OAK       CLOUDY    75  66  73 NE3       30.12R                  
CROSS CITY       N/A     70  65  84 CALM      30.11R                  
LAKE CITY      FAIR      72  66  83 CALM      30.13R                  
GAINESVILLE    FAIR      69  64  84 CALM      30.14R                  
WILLISTON      FAIR      69  64  83 CALM      30.11S                  
PALATKA        MOCLDY    66  63  88 CALM      30.12R                  
MAYPORT NAS    CLOUDY    79  68  69 E14       30.12R                  
JACKSONVILLE   MOCLDY    75  68  78 N5        30.12R                  
JAX NAS        LGT RAIN  76  70  82 CALM      30.13R                  
JAX CECIL      NOT AVBL                                               
FERNANDINA BEA FAIR      78  68  72 E8        30.12S                  
ST AUGUSTINE   CLOUDY   N/A N/A N/A E6        30.13R                  
PALM COAST     CLOUDY    76  68  76 E8        30.11                   

STATION/POSITION SKY/WX   TEMP    WIND        PRES    WAVE   SWELL
                          AIR SEA DIR/SP/G            HT/PER HT/PER
                          (F)     (DEG/KT/KT) (MB)    (FT/S) (FT/S)
SHELL POINT      NOT AVBL
KEATON BEACH               77      80/  7/  7 1019.6R
CEDAR KEY                  80      70/ 13/ 15 1019.0R
FERNANDINA                 83 81   20/  5/ 11 1020.8
30.7N   81.3W                 81                N/A     4/ 8   2/14
MAYPORT                    79 81  110/  5/  8 1020.2
31.4N   80.9W              80 81   90/ 10/ 12 1020.3R   4/ 8   3/ 8
ST AUGUSTINE               80 81   90/ 11/ 12 1019.9R

$$
FLZ040-043>046-052-053-057-058-063-144-230300-
INTERIOR CENTRAL FLORIDA
  
CITY           SKY/WX    TMP DP  RH WIND       PRES   REMARKS
OCALA          FAIR      74  64  71 CALM      30.11S                  
LEESBURG       FAIR      74  65  73 NE5       30.11R                  
SANFORD        FAIR      74  66  76 NE5       30.09S                  
ORLANDO EXEC   FAIR      75  65  70 NE5       30.09S                  
ORLANDO INTL   FAIR      76  65  68 NE7       30.09R                  
KISSIMMEE      FAIR      77  67  71 NE6       30.10R                  
WINTER HAVEN   FAIR      75  65  70 NE6       30.10R                  
LAKELAND       PTCLDY    75  64  69 E7        30.09R                  
BARTOW           N/A     75  66  73 NE5       30.08R                  
SEBRING        FAIR      71  67  85 NE7       30.07S                  
OKEECHOBEE     FAIR      70  64  83 N3        30.06R                  

$$
FLZ041-047-054-059-064-141-147-230300-
EAST CENTRAL FLORIDA
  
CITY           SKY/WX    TMP DP  RH WIND       PRES   REMARKS
DAYTONA BEACH  FAIR      78  69  73 E13       30.10R                  
DELAND         MOCLDY    72  66  83 N3        30.10R                  
NEW SMYRNA BEA MOCLDY    79  68  69 E10       30.10S                  
JFK SPACE CTR  PTCLDY    76  68  75 E8        30.08R                  
CAPE CANAVERAL FAIR      79  69  70 E8        30.07R                  
MELBOURNE      FAIR      80  66  62 E13       30.07R                  
VERO BEACH     CLOUDY    80  69  69 E9        30.06R                  
FT PIERCE      MOCLDY    78  66  66 E7        30.05S                  
STUART         FAIR      79  63  57 NE14G20   30.06R                  

STATION/POSITION SKY/WX   TEMP    WIND        PRES    WAVE   SWELL
                          AIR SEA DIR/SP/G            HT/PER HT/PER
                          (F)     (DEG/KT/KT) (MB)    (FT/S) (FT/S)
28.5N   80.2W              81 82   60/ 16/ 19 1019.0R   7/ 8   5/ 8
28.9N   78.5W              79 80   60/ 16/ 19 1019.2R   8/13   7/13
TRIDENT PIER               79 81   50/  7/ 13 1019.9
28.4N   80.5W                 81                N/A     4/13   2/13
27.5N   80.2W                 82                N/A     5/13   3/13

$$
FLZ050-056-061-142-242-148-248-149-249-151-251-155-255-
160-260-230300-
WEST CENTRAL FLORIDA
  
CITY           SKY/WX    TMP DP  RH WIND       PRES   REMARKS
CRYSTAL RIVER  FAIR      72  64  78 CALM      30.10R                  
INVERNESS      FAIR      72  66  83 CALM      30.11R                  
BROOKSVILLE    FAIR      73  63  70 NE5       30.10R                  
CLEARWATER AIR FAIR      79  64  61 E7        30.07R                  
ST PETE CLEARW FAIR      81  64  56 E12       30.07R                  
TAMPA INTL     FAIR      80  63  55 VRB7      30.08R                  
TAMPA EXEC     FAIR      72  68  88 CALM      30.09R                  
PLANT CITY     FAIR      75  66  73 E5        30.11R                  
MACDILL AFB    FAIR      76  65  67 E9        30.07                   
PETER O KNIGHT CLOUDY    79  66  65 E8        30.08R                  
ST PETERSBURG  FAIR      81  67  62 E20       30.06R                  
SARASOTA       FAIR      79  65  62 E9        30.04R                  
VENICE         CLOUDY    77  66  69 NE7       30.05S                  

STATION/POSITION SKY/WX   TEMP    WIND        PRES    WAVE   SWELL
                          AIR SEA DIR/SP/G            HT/PER HT/PER
                          (F)     (DEG/KT/KT) (MB)    (FT/S) (FT/S)
27.3N   84.2W                 84                N/A     4/ 6
CLEARWATER BEACH           81 84   60/ 10/ 16 1018.4
MIDDLE TAMPA BAY           80      90/ 13/ 16 1018.1
VENICE                     78 84   50/  6/  8 1017.6R

$$
FLZ066-069-070-075>078-162-262-165-265-230300-
SOUTHWEST FLORIDA AND KEYS
  
CITY           SKY/WX    TMP DP  RH WIND       PRES   REMARKS
PUNTA GORDA    FAIR      74  67  78 E9        30.06R                  
FT MYERS       FAIR      77  65  66 NE9       30.03R                  
SOUTHWEST INTL FAIR      77  66  68 NE13      30.04R                  
NAPLES         FAIR      80  70  71 NE10      30.02R                  
MARCO ISLAND   FAIR      78  69  73 NE9       30.03R                  
IMMOKALEE        N/A     75  68  78 NE6       30.02R                  
MARATHON       FAIR      81  73  76 NE22G28   29.96S                  
KEY WEST NAS   MOCLDY    82  73  74 NE12      29.98R                  
KEY WEST INTL  FAIR      81  73  76 NE10      29.98R                  

STATION/POSITION SKY/WX   TEMP    WIND        PRES    WAVE   SWELL
                          AIR SEA DIR/SP/G            HT/PER HT/PER
                          (F)     (DEG/KT/KT) (MB)    (FT/S) (FT/S)
NAPLES                     80 83   60/  5/ 10 1016.5
26.0N   85.6W              84 85   70/ 16/ 21 1016.5R   7/ 7
DRY TORTUGAS               84      80/ 20/ 24 1015.1R
SAND KEY                   82      60/ 22/ 26 1013.3R
SOMBRERO KEY               82      50/ 22/ 27 1014.5F
LONG KEY                   81                 1013.7R

$$
FLZ067-068-071>074-168-172>174-230300-
SOUTHEAST FLORIDA 
  
CITY           SKY/WX    TMP DP  RH WIND       PRES   REMARKS
W PALM BEACH   FAIR      80  66  62 NE13      30.04R                  
BOCA RATON     PTCLDY    81  70  69 NE16G23   30.01S                  
FT LAUDER-EXEC CLOUDY    81  70  69 NE14      30.01R                  
FT LAUDERDALE  FAIR      80  71  74 NE13      30.00R                  
POMPANO BEACH  CLOUDY    82  70  66 NE20G26   30.02R                  
PEMBROKE PINES CLOUDY    81  71  71 NE16      30.02R                  
OPA LOCKA      CLOUDY    81  71  71 NE12      30.02R                  
MIAMI          MOCLDY    82  70  66 NE13      30.00S                  
WEST KENDALL   CLOUDY    81  73  76 NE13      29.99R                  
HOMESTEAD      LGT RAIN  78  74  88 NE16      29.99R                  

STATION/POSITION SKY/WX   TEMP    WIND        PRES    WAVE   SWELL
                          AIR SEA DIR/SP/G            HT/PER HT/PER
                          (F)     (DEG/KT/KT) (MB)    (FT/S) (FT/S)
VIRGINIA KEY               81 83   30/ 14/ 19 1015.3
LAKE WORTH                 80 82   50/ 19/ 22 1017.9
FOWEY ROCKS                81 83   50/ 24/ 26 1015.8R
SETTLEMENT POINT           79      50/ 19/ 20 1016.8R

$$